Weather History for Garrison, ND

Change the Weather History Date:

Tuesday, July 30, 2013

  Actual Average Record
Temperature  
Mean Temperature 63 °F -  
Max Temperature 75 °F 79 °F 97 °F (2007)
Min Temperature 50 °F 54 °F 41 °F (2004)
Degree Days  
Heating Degree Days 3    
Growing Degree Days 12 (Base 50)    
Moisture  
Dew Point 56 °F    
Average Humidity 79    
Maximum Humidity 100    
Minimum Humidity 57    
Precipitation  
Precipitation 0.00 in - - ()
Month to date precipitation 2.16  
Year to date precipitation 18.85  
Sea Level Pressure  
Sea Level Pressure 30.09 in    
Wind  
Wind Speed 4 mph (WNW)    
Max Wind Speed 13 mph    
Max Gust Speed 16 mph    
Averages and records for this station are not official NWS values.
T = Trace of Precipitation, MM = Missing Value Source: NWS Daily Summary

Daily Weather History Graph

Daily Weather History Graph

Search for Another Location

Airport:

Trip Planner

Search our weather history database for the weather conditions in past years. The results will help you decide how hot, cold, wet, or windy it might be!

Date:

Astronomy

Jul. 30, 2013 Rise Set
Actual Time 6:20 AM CDT 9:22 PM CDT
Civil Twilight 5:44 AM CDT 9:58 PM CDT
Nautical Twilight 4:57 AM CDT 10:45 PM CDT
Astronomical Twilight 3:59 AM CDT 11:42 PM CDT
Moon 12:44 AM CDT (7/30) 3:43 PM CDT (7/30)
Length of Visible Light 16h 14m
Length of Day
15h 01m
Last Quarter, 41% of the Moon is Illuminated
Jul 30
Last Quarter
Aug 6
New
Aug 14
First Quarter
Aug 20
Full
Aug 28
Last Quarter

Hourly Weather History & Observations

Time (CDT) Temp. Dew Point Humidity Pressure Visibility Wind Dir Wind Speed Gust Speed Precip Events Conditions
12:52 AM 55.9 °F 54.0 °F 93% 30.04 in - NNW 4.6 mph - N/A   Unknown
1:52 AM 55.0 °F 54.0 °F 96% 30.05 in - WNW 5.8 mph - N/A   Unknown
2:52 AM 53.1 °F 52.0 °F 96% 30.06 in - NW 5.8 mph - N/A   Unknown
3:52 AM 53.1 °F 52.0 °F 96% 30.06 in - Calm Calm - N/A   Unknown
4:52 AM 52.0 °F 51.1 °F 97% 30.07 in - Calm Calm - N/A   Unknown
5:52 AM 51.1 °F 51.1 °F 100% 30.08 in - NNW 4.6 mph - N/A   Unknown
6:52 AM 53.1 °F 51.1 °F 93% 30.09 in - NNW 3.5 mph - N/A   Unknown
7:52 AM 57.0 °F 55.0 °F 93% 30.09 in - Calm Calm - N/A   Unknown
8:52 AM 62.1 °F 55.9 °F 80% 30.09 in - Calm Calm - N/A   Unknown
9:52 AM 62.1 °F 57.0 °F 84% 30.12 in - Calm Calm - N/A   Unknown
10:52 AM 63.0 °F 55.9 °F 78% 30.12 in - Calm Calm - N/A   Unknown
11:52 AM 62.1 °F 57.9 °F 86% 30.13 in - South 3.5 mph - N/A   Unknown
12:52 PM 63.0 °F 57.9 °F 84% 30.14 in - SW 3.5 mph - N/A   Unknown
1:52 PM 68.0 °F 60.1 °F 76% 30.12 in - SSW 4.6 mph - N/A   Unknown
2:52 PM 70.0 °F 57.9 °F 65% 30.11 in - WSW 9.2 mph - N/A   Unknown
3:52 PM 73.0 °F 57.9 °F 59% 30.09 in - West 9.2 mph 16.1 mph N/A   Unknown
4:52 PM 72.0 °F 57.0 °F 59% 30.09 in - West 8.1 mph - N/A   Unknown
5:52 PM 72.0 °F 55.9 °F 57% 30.08 in - Variable 4.6 mph - N/A   Unknown
6:52 PM 73.0 °F 60.1 °F 64% 30.07 in - NW 8.1 mph - N/A   Unknown
7:52 PM 71.1 °F 59.0 °F 66% 30.08 in - North 9.2 mph - N/A   Unknown
8:52 PM 66.0 °F 60.1 °F 81% 30.09 in - North 3.5 mph - N/A   Unknown
9:52 PM 61.0 °F 57.0 °F 87% 30.10 in - North 4.6 mph - N/A   Unknown
10:52 PM 55.0 °F 54.0 °F 96% 30.13 in - Calm Calm - N/A   Unknown
11:52 PM 57.0 °F 55.0 °F 93% 30.14 in - Calm Calm - N/A   Unknown